Weather History for KRBG - March, 2014

Change the Weather History Date:

Wednesday, March 5, 2014

  Actual Average Record
Temperature  
Mean Temperature 61 °F 48 °F  
Max Temperature 66 °F 57 °F 71 °F (1986)
Min Temperature 55 °F 39 °F 21 °F (1955)
Degree Days  
Heating Degree Days 4 18  
Month to date heating degree days 42 90  
Since 1 July heating degree days 2969 2959  
Cooling Degree Days 0 0  
Month to date cooling degree days 0 0  
Year to date cooling degree days 0 0  
Growing Degree Days 10 (Base 50)    
Moisture  
Dew Point 50 °F    
Average Humidity 69    
Maximum Humidity 86    
Minimum Humidity 51    
Precipitation  
Precipitation 0.20 in 0.10 in 0.90 in (1989)
Month to date precipitation 0.65 0.50  
Year to date precipitation 8.10 9.54  
Sea Level Pressure  
Sea Level Pressure 29.74 in    
Wind  
Wind Speed 7 mph (South)    
Max Wind Speed 17 mph    
Max Gust Speed 27 mph    
Visibility 9 miles    
Events Rain    
T = Trace of Precipitation, MM = Missing Value Source: NWS Daily Summary

Daily Weather History Graph

Daily Weather History Graph

Search for Another Location

Airport or City:

Trip Planner

Search our weather history database for the weather conditions in past years. The results will help you decide how hot, cold, wet, or windy it might be!

Date:

Astronomy

Mar. 05, 2014 Rise Set
Actual Time 6:42 AM PST 6:07 PM PST
Civil Twilight 6:14 AM PST 6:36 PM PST
Nautical Twilight 5:41 AM PST 7:09 PM PST
Astronomical Twilight 5:08 AM PST 7:42 PM PST
Moon 9:03 AM PST (3/5) 11:31 PM PST (3/5)
Length of Visible Light 12h 21m
Length of Day
11h 24m
Waxing Crescent, 24% of the Moon is Illuminated
Mar 5
Waxing Crescent
Mar 8
First Quarter
Mar 16
Full
Mar 23
Last Quarter
Mar 30
New

Hourly Weather History & Observations

Time (PST) Temp. Dew Point Humidity Pressure Visibility Wind Dir Wind Speed Gust Speed Precip Events Conditions
12:53 AM 55.0 °F 51.1 °F 86% 29.88 in 10.0 mi NNW 3.5 mph - N/A   Overcast
1:53 AM 55.9 °F 50.0 °F 80% 29.87 in 10.0 mi South 4.6 mph - 0.00 in   Overcast
2:53 AM 59.0 °F 48.9 °F 69% 29.85 in 10.0 mi South 4.6 mph - N/A   Overcast
3:53 AM 59.0 °F 48.9 °F 69% 29.84 in 10.0 mi South 5.8 mph - 0.00 in   Overcast
4:53 AM 60.1 °F 48.9 °F 67% 29.83 in 10.0 mi South 4.6 mph - N/A   Overcast
5:53 AM 57.9 °F 48.9 °F 72% 29.83 in 10.0 mi South 3.5 mph - N/A   Overcast
6:53 AM 59.0 °F 48.9 °F 69% 29.83 in 10.0 mi South 3.5 mph - N/A   Overcast
7:53 AM 61.0 °F 48.0 °F 62% 29.83 in 10.0 mi SSW 3.5 mph - N/A   Overcast
8:53 AM 60.1 °F 50.0 °F 69% 29.83 in 10.0 mi South 3.5 mph - 0.01 in Rain Light Rain
9:53 AM 59.0 °F 51.1 °F 75% 29.82 in 10.0 mi SSE 9.2 mph - 0.02 in   Overcast
10:53 AM 61.0 °F 51.1 °F 70% 29.80 in 9.0 mi SSE 12.7 mph - 0.00 in Rain Light Rain
11:53 AM 64.9 °F 51.1 °F 61% 29.75 in 10.0 mi South 11.5 mph - 0.00 in Rain Light Rain
12:53 PM 66.0 °F 51.1 °F 59% 29.70 in 10.0 mi South 12.7 mph 17.3 mph 0.00 in   Mostly Cloudy
1:53 PM 64.0 °F 50.0 °F 60% 29.65 in 8.0 mi Variable 5.8 mph - 0.00 in Rain Light Rain
2:53 PM 63.0 °F 53.1 °F 70% 29.63 in 10.0 mi Variable 4.6 mph - 0.02 in   Overcast
3:53 PM 63.0 °F 54.0 °F 72% 29.61 in 6.0 mi South 8.1 mph - 0.01 in Rain Light Rain
4:53 PM 61.0 °F 55.0 °F 81% 29.60 in 3.0 mi SSE 5.8 mph - 0.04 in Rain Light Rain
5:34 PM 60.1 °F 55.9 °F 86% 29.62 in 2.5 mi Variable 3.5 mph - 0.05 in Rain Rain
5:46 PM 61.0 °F 55.9 °F 83% 29.62 in 3.0 mi North - - 0.07 in Rain Light Rain
5:53 PM 60.1 °F 55.0 °F 83% 29.62 in 3.0 mi WSW 6.9 mph - 0.07 in Rain Light Rain
6:53 PM 60.1 °F 48.9 °F 67% 29.65 in 10.0 mi South 9.2 mph 17.3 mph 0.03 in   Scattered Clouds
7:53 PM 60.1 °F 45.0 °F 57% 29.67 in 10.0 mi South 10.4 mph 23.0 mph 0.00 in   Mostly Cloudy
8:53 PM 57.0 °F 46.0 °F 67% 29.72 in 10.0 mi Variable 6.9 mph - 0.00 in Rain Light Rain
9:53 PM 55.9 °F 46.0 °F 69% 29.74 in 10.0 mi SSE 6.9 mph - 0.00 in   Partly Cloudy
10:53 PM 57.0 °F 39.9 °F 53% 29.75 in 10.0 mi South 15.0 mph 23.0 mph N/A   Clear
11:53 PM 55.9 °F 41.0 °F 57% 29.77 in 10.0 mi South 11.5 mph - N/A   Clear